Location: �A�n Sefra
(34.9681°N, 0.4346°E)
Time: 11:27:49
(UTC+00:00)

Cosmos 1459 Rocket - Pass Details

Date: 21 October 2019
Orbit: 938 x 999 km, 83.0° (Epoch: 20 November)

Event Time Altitude Azimuth Distance (km) Brightness Sun altitude
Rises 18:39:14 0° 1° (N) 3,668 7.0 -17.7°
Reaches altitude 10° 18:41:52 10° 7° (N) 2,727 6.3 -18.2°
Maximum altitude 18:47:51 46° 80° (E) 1,307 4.2 -19.4°
Drops below altitude 10° 18:53:51 10° 152° (SSE) 2,747 6.1 -20.6°
Sets 18:56:30 0° 158° (SSE) 3,697 6.8 -21.2°
